Location: Unspecified
(0.0000°N, 0.0000°E)
Time: 17:39:29
(UTC+00:00)

Envisat - Pass Details

Date: 19 January 2020
Orbit: 764 x 766 km, 98.1° (Epoch: 23 January)

Event Time Altitude Azimuth Distance (km) Brightness Sun altitude
Rises 05:08:45 0° 51° (NE) 3,217 6.7 -14.4°
Reaches altitude 10° 05:12:41 10° 82° (E) 2,296 6.5 -13.5°
Maximum altitude 05:14:28 12° 103° (ESE) 2,172 6.7 -13.1°
Drops below altitude 10° 05:16:15 10° 124° (ESE) 2,299 6.9 -12.7°
Sets 05:20:11 0° 154° (SSE) 3,229 7.0 -11.8°
